Wind_Gust
13 12 12 11 10 9 9 8 6 6 6 5 7 7 8 6 7 7 8 9 9 10 11 11 12 12 14 14 13 16 17 17 17 15 17 17 16 14 15 16 18 21
12 11 12 11 10 9 7 7 6 6 6 6 7 7 7 8 7 8 9 10 11 12 12 12 12 14 14 16 13 15 18 17 19 18 17 16 17 18 17 14 18 22
13 12 11 11 10 9 9 8 7 7 7 7 7 7 9 8 9 9 9 10 13 14 13 12 12 14 14 15 16 18 19 18 18 18 19 20 18 17 17 15 14 16
14 13 12 11 9 10 10 9 9 8 8 9 9 9 9 8 9 10 11 13 14 14 13 15 15 14 15 16 15 19 19 21 20 17 19 20 20 19 18 17 15 16
15 15 14 12 11 10 10 10 10 10 9 8 7 8 10 10 11 12 12 13 12 14 14 14 13 13 14 16 17 19 19 22 20 19 23 23 21 20 19 18 18 17
16 16 15 14 13 12 12 11 11 11 10 10 10 10 11 12 12 12 13 14 14 15 15 15 15 14 14 16 17 19 21 21 21 21 22 22 23 23 23 20 19 20
17 16 14 14 13 13 12 11 11 10 10 10 11 12 13 12 12 14 14 14 17 17 17 16 16 15 14 15 19 20 22 20 21 23 24 24 23 21 23 24 23 22
17 14 15 13 13 12 12 12 12 12 11 12 13 13 12 13 16 14 15 16 16 18 18 18 18 19 18 17 21 21 20 17 21 22 22 23 23 23 23 25 21 24
16 15 14 13 13 13 13 13 12 12 12 13 14 14 15 15 14 15 16 17 18 18 18 18 19 19 19 20 20 22 23 22 21 22 23 24 25 25 24 25 24 24
16 15 14 14 13 12 12 12 12 12 13 14 15 14 16 13 15 16 17 17 19 20 19 20 22 22 24 23 24 23 23 24 24 25 24 24 25 26 25 26 25 24
15 15 14 13 13 12 12 12 12 13 12 14 14 15 15 15 15 14 16 20 20 21 23 23 23 24 24 25 23 21 25 26 25 25 26 26 26 27 23 27 26 25
16 14 14 13 13 13 12 12 12 12 12 12 14 15 15 16 15 17 18 20 21 23 23 25 25 25 25 25 26 24 23 24 25 26 26 27 27 27 27 27 26 26
17 15 14 13 12 12 11 11 11 11 12 13 12 14 16 17 17 19 18 21 22 24 24 23 24 24 27 24 25 27 29 29 29 27 27 28 26 29 28 28 29 27
16 14 13 12 11 10 10 10 10 10 11 11 12 15 16 18 19 19 20 21 23 23 23 21 22 25 27 28 28 28 27 29 30 28 29 28 28 29 29 29 29 29
12 12 11 11 11 11 11 10 10 9 11 12 14 16 15 18 19 21 23 24 24 23 23 21 21 22 24 28 29 27 27 29 29 29 30 31 30 30 30 30 30 30
14 12 11 11 11 11 11 8 8 10 11 13 15 16 18 18 20 21 22 23 24 26 24 20 20 19 17 19 18 26 27 29 25 25 26 28 28 29 30 31 31 31
14 13 13 13 12 10 8 11 13 12 13 15 14 15 16 17 17 22 23 23 24 24 25 22 22 22 17 17 16 17 18 20 27 33 30 31 27 26 29 31 31 30
14 13 13 12 11 11 11 11 10 12 14 15 15 15 14 14 16 22 23 24 24 25 24 24 23 16 18 19 19 18 15 20 22 25 28 30 32 33 34 31 32 33
14 13 12 11 10 11 10 9 10 12 15 15 17 14 12 15 20 22 25 25 24 28 27 25 27 19 19 19 17 17 18 18 20 23 27 27 32 36 34 34 33 34
12 12 11 10 11 11 10 10 12 14 13 14 14 12 12 14 18 21 22 21 22 26 28 27 29 18 19 19 19 19 18 15 19 22 25 28 34 33 33 35 33 33
12 11 11 11 11 9 9 12 13 13 15 15 13 12 12 16 23 24 20 19 21 22 25 26 25 19 21 21 22 24 25 22 23 22 24 26 27 29 32 33 36 36
10 9 10 11 11 11 12 13 13 13 13 12 10 13 16 18 19 20 21 22 22 22 22 24 24 18 19 19 20 20 22 26 24 24 26 28 29 30 31 34 31 36
9 10 10 11 12 13 14 13 13 12 11 11 13 14 16 18 20 21 23 23 23 23 25 24 23 19 19 20 19 20 20 24 22 25 29 31 33 32 33 38 34 37
10 10 11 11 12 13 12 11 11 12 13 9 12 13 15 18 24 24 23 24 25 27 25 24 24 21 22 22 24 24 22 26 22 25 29 30 33 30 31 32 35 31
8 9 10 10 11 12 10 11 11 12 12 11 13 13 15 17 22 27 27 29 28 27 20 28 30 24 21 21 22 23 26 24 23 26 30 30 31 31 28 29 30 27
8 9 9 10 10 10 11 11 11 12 12 12 11 15 18 22 24 26 28 30 29 27 25 25 30 31 24 23 24 25 27 33 27 28 31 30 29 34 32 29 29 30
Wind_Speed
5 5 4 4 3 3 4 3 1 2 2 1 1 1 2 2 2 2 1 2 2 3 4 5 5 5 5 5 6 6 6 7 7 7 8 8 8 8 7 7 9 10
6 5 5 4 4 2 3 3 2 2 2 1 1 1 1 1 1 1 2 2 3 3 4 4 5 6 5 5 5 6 6 6 8 6 8 9 8 8 10 9 8 8
5 5 5 5 4 4 3 3 2 2 2 2 1 1 1 1 2 2 2 2 3 4 4 3 4 5 6 6 6 6 7 7 8 8 8 9 8 9 9 8 6 7
6 5 4 4 3 3 3 3 2 2 2 2 2 2 2 2 1 2 3 5 5 5 4 4 5 5 6 7 6 6 7 8 8 8 8 8 9 9 9 8 8 7
7 6 5 4 3 3 3 3 4 3 3 3 2 1 2 2 3 4 3 3 3 4 4 4 4 4 4 5 6 6 6 7 8 8 8 9 9 9 9 9 9 9
7 7 7 6 5 4 4 4 4 3 3 3 3 2 3 3 4 4 4 4 4 4 5 5 5 5 5 5 5 6 6 7 7 8 10 11 10 9 9 9 9 10
8 7 7 6 5 5 4 4 3 3 3 3 2 3 4 5 5 4 4 4 5 5 6 6 5 5 4 4 4 6 7 7 8 10 12 11 11 11 10 11 11 12
8 7 6 5 5 5 5 4 3 3 3 3 4 5 5 4 5 5 5 6 6 6 6 6 6 6 6 5 6 6 8 7 7 8 11 12 11 12 11 10 10 11
8 7 6 6 6 5 5 5 4 4 4 4 5 5 5 5 5 4 6 6 6 6 6 6 6 6 5 5 7 8 9 8 8 10 10 11 11 12 12 12 12 11
8 7 7 7 6 5 5 4 4 4 4 4 5 5 5 4 4 5 6 6 7 7 7 7 7 7 7 7 9 9 10 11 10 10 11 11 11 12 13 12 12 12
8 7 7 7 6 5 5 5 4 4 3 5 4 5 5 4 5 4 5 6 7 8 8 8 8 8 9 9 9 9 10 10 11 11 11 12 12 12 12 13 13 13
8 7 7 6 6 5 4 4 3 4 3 3 4 5 5 5 6 6 6 7 7 8 9 10 10 10 10 11 10 10 10 10 10 10 11 12 12 12 13 13 13 14
8 7 6 5 5 4 4 3 3 3 3 4 3 4 4 6 6 7 6 6 8 8 9 9 9 10 10 11 11 11 11 11 11 11 11 11 12 13 13 13 14 14
8 7 6 5 4 4 3 3 2 3 3 2 2 4 5 6 7 7 7 7 8 8 9 8 9 9 10 10 11 11 10 11 11 11 11 12 12 13 13 13 13 14
6 6 5 4 4 3 3 3 3 2 1 2 3 4 5 6 6 7 8 9 9 9 10 9 8 9 8 9 10 11 11 11 11 12 12 13 12 13 13 13 13 13
6 4 4 4 3 4 4 4 2 2 2 4 5 5 5 5 6 6 8 9 10 10 10 9 8 7 9 12 12 11 11 12 11 11 11 11 12 12 13 13 14 13
6 6 5 6 5 5 3 2 4 4 4 5 4 4 5 5 3 5 7 8 10 10 11 10 9 8 12 12 11 12 10 11 12 13 13 14 14 14 14 13 13 14
6 6 6 5 5 4 4 4 3 2 3 4 4 5 5 3 3 5 7 8 8 10 11 10 9 11 14 13 13 14 12 11 12 12 12 13 14 14 14 14 15 14
7 6 6 4 4 3 3 3 2 3 5 5 5 5 3 3 4 6 7 8 9 11 11 11 11 12 13 14 14 12 12 11 8 11 14 14 14 15 15 15 14 14
5 5 4 3 3 3 3 3 3 4 4 4 5 4 3 3 3 6 8 9 9 10 10 10 11 12 14 15 15 16 16 11 9 10 13 14 15 15 14 15 16 15
5 4 3 3 4 3 2 3 4 4 4 5 3 1 3 4 5 6 8 9 10 10 11 11 10 14 15 17 17 18 19 18 13 12 13 14 15 15 16 16 17 16
3 2 3 3 3 3 4 4 4 4 4 3 2 1 2 3 5 6 8 10 10 10 10 11 10 12 12 12 13 14 16 12 13 13 14 15 15 16 16 16 16 17
3 3 3 3 3 4 4 4 4 3 3 2 3 3 4 5 5 7 8 10 11 10 11 12 11 11 12 13 14 15 13 12 12 12 14 16 17 16 16 16 17 17
3 3 3 3 3 4 3 2 2 3 3 2 2 3 4 5 6 8 9 10 11 11 11 12 12 12 15 15 16 17 16 14 12 13 15 15 15 15 15 15 17 23
3 3 2 2 2 2 2 2 3 3 2 2 2 3 4 5 7 8 9 9 10 11 14 15 13 13 14 15 16 16 15 13 12 13 15 15 14 16 15 15 16 17
2 2 3 3 2 2 2 2 2 2 3 2 2 2 4 6 8 8 11 11 11 12 11 11 12 12 13 16 17 18 19 16 13 14 16 16 15 14 14 15 15 15
Wind_Direction
176 168 175 182 195 190 169 190 183 172 176 178 217 238 229 212 205 219 259 303 295 297 298 296 298 296 295 295 294 284 279 282 284 288 283 278 282 286 271 242 235 241
180 172 179 180 190 195 161 178 175 190 181 200 231 281 290 277 264 256 264 261 268 262 268 272 280 284 288 296 302 299 292 288 286 284 284 285 282 271 271 266 241 239
177 182 185 186 190 178 166 155 173 180 222 214 228 222 282 309 284 269 252 258 269 280 284 287 287 288 285 277 277 289 289 285 280 281 281 283 284 286 281 268 253 221
183 184 187 188 194 170 164 165 178 203 204 217 215 217 224 247 281 284 274 264 254 252 244 249 257 261 273 280 285 283 284 288 291 294 294 290 283 280 281 285 276 254
181 180 185 186 187 181 169 191 201 203 211 213 223 255 263 256 251 250 251 269 283 286 283 277 270 267 275 288 291 289 286 283 283 286 282 277 279 281 280 276 272 272
182 183 185 184 184 184 189 199 208 210 218 227 225 238 248 251 250 256 264 275 278 282 277 273 274 273 261 261 266 267 275 278 280 284 284 281 276 269 274 274 273 268
181 181 185 182 184 187 194 206 210 215 222 221 230 232 235 238 239 257 271 266 271 276 283 286 287 284 285 277 279 283 274 268 272 278 278 278 281 280 273 274 277 276
179 181 182 184 185 183 200 207 213 223 221 230 237 243 242 261 271 268 260 262 264 264 265 275 275 278 284 289 274 265 272 280 276 270 271 274 277 276 279 280 280 281
174 179 178 185 185 191 202 208 215 220 219 227 237 248 250 247 253 264 274 276 275 272 270 266 273 279 279 277 277 276 274 270 270 271 269 270 272 274 274 275 277 278
177 176 180 186 193 198 207 212 216 222 227 236 245 255 267 270 264 264 267 272 279 281 284 285 281 279 276 269 270 270 271 274 274 272 268 263 263 267 269 269 267 271
179 181 183 185 191 195 209 212 220 226 232 246 254 262 272 280 277 274 270 270 273 277 275 273 275 275 273 271 265 263 264 263 262 265 270 272 268 267 269 269 269 265
179 184 186 187 193 200 211 218 224 232 241 253 264 271 274 274 278 277 278 277 273 272 275 279 277 274 272 271 272 271 271 270 270 267 264 267 269 268 264 264 267 268
182 183 186 188 189 196 200 209 217 230 248 252 260 280 287 290 284 284 287 290 290 288 281 274 275 273 274 274 274 272 268 268 268 268 269 267 266 267 267 265 264 267
180 182 182 185 183 186 199 203 225 236 235 261 289 281 280 279 287 295 292 289 285 282 284 286 282 283 281 282 283 279 274 268 267 266 265 265 265 266 268 269 268 267
169 176 171 175 179 192 197 210 218 225 268 283 273 276 275 280 290 290 289 290 292 290 285 279 275 268 265 266 266 268 269 271 267 264 264 265 265 264 264 263 264 266
166 161 171 173 184 195 202 205 207 233 247 249 250 255 266 280 281 283 292 294 291 289 286 284 279 276 271 265 263 269 274 275 277 280 282 280 274 269 264 263 263 263
171 171 177 187 194 200 190 199 227 223 231 249 266 270 275 277 282 302 303 300 296 294 290 286 284 281 278 274 272 267 268 270 268 267 263 269 277 284 286 281 271 264
173 179 186 195 192 195 200 225 234 249 263 270 273 274 269 272 304 297 290 289 286 287 286 285 284 285 286 285 283 281 273 270 271 269 266 261 259 261 268 275 276 277
174 184 190 189 189 205 222 233 243 246 256 261 263 274 286 299 304 299 293 291 289 287 286 286 286 287 290 292 293 290 286 277 267 268 270 265 261 259 259 263 269 271
177 179 191 186 196 216 226 231 238 248 257 258 266 268 292 321 304 297 294 289 286 285 283 283 280 286 288 290 291 291 289 281 271 267 271 268 267 264 260 260 260 263
181 180 188 200 214 221 227 248 257 259 256 266 275 9 341 303 298 299 294 288 286 282 279 275 272 268 265 266 267 268 271 276 274 270 268 267 267 265 263 261 261 260
187 186 191 218 224 237 236 237 248 251 261 269 287 309 292 310 305 296 291 291 289 290 288 285 284 282 279 278 275 271 269 269 271 267 267 268 267 264 263 261 260 258
192 207 216 221 235 244 244 245 241 256 299 340 339 340 321 309 303 297 301 297 295 291 290 290 291 288 288 289 291 290 285 280 272 270 267 268 266 266 264 262 260 258
206 226 236 229 239 248 265 293 340 342 312 352 336 329 321 321 312 304 298 297 295 296 295 295 295 295 295 294 292 291 286 284 274 271 270 268 268 266 266 263 259 256
195 228 253 282 285 288 324 329 326 308 305 304 338 355 331 317 310 306 301 298 299 299 301 297 293 294 291 290 286 282 282 281 272 266 269 267 267 267 262 260 259 255
190 219 226 235 276 333 334 312 302 307 295 336 30 342 324 324 316 307 303 302 300 298 295 293 294 294 294 291 292 292 288 286 279 270 267 267 263 262 262 256 256 254